SORTIE

Last updated on Tue Sep 20 2022 00:02:06 GMT+0000 (Coordinated Universal Time)

1 45264U 98067RH 22261.74881051 .11750984 12589-4 19245-3 0 9996 2 45264 51.6256 159.3950 0006828 256.9388 103.0880 16.47726909147109

Satellite not in orbit

SORTIE